Tracking 30116 objects as of 10-Feb-2025
HD Live streaming from Space Station
objects crossing your sky now

STARLINK-32847

Track STARLINK-32847 now!
10-day predictions
STARLINK-32847 is classified as:


NORAD ID: 62811
Int'l Code: 2025-018F
Perigee: 352.9 km
Apogee: 354.4 km
Inclination: 53.2 °
Period: 91.5 minutes
Semi major axis: 6724 km
RCS: Unknown
Launch date: January 24, 2025
Source: United States (US)
Launch site: AIR FORCE WESTERN TEST RANGE (AFWTR)
Your satellite tracking list
Your tracking list is empty




NASA's NSSDC Master Catalog

Two Line Element Set (TLE):
1 62811U 25018F   25041.58335648 -.01189014  00000-0 -90875-2 0  9995
2 62811  53.1563 339.8622 0001121  88.0086  99.9487 15.74340607  3973
Source of the keplerian elements: AFSPC